Regional Weather Roundup
Issued by NWS

Home | Current Version | Previous Version | Text Only | Print | Product List | Glossary Off
Versions: 1 2 3 4 5 6 7 8 9 10 11 12 13 14 15 16 17 18 19 20 21 22 23 24 25 26 27 28 29 30 31 32 33 34 35 36 37 38 39 40 41 42 43 44 45 46 47 48 49 50

867
ASUS43 KMKX 251300
RWRWI

WISCONSIN REGIONAL WEATHER ROUNDUP
NATIONAL WEATHER SERVICE MILWAUKEE/SULLIVAN WI
800 AM CDT SAT MAR 25 2017

NOTE: "FAIR" INDICATES FEW OR NO CLOUDS BELOW 12,000 FEET WITH NO
SIGNIFICANT WEATHER AND/OR OBSTRUCTIONS TO VISIBILITY.

WIZ001-002-006>008-014>016-023>028-251400-
NORTHWEST WISCONSIN

CITY           SKY/WX    TMP DP  RH WIND       PRES   REMARKS
SUPERIOR ARPT  CLOUDY    33  30  88 E13G20    30.29R WCI  24
ASHLAND        CLOUDY    33  29  85 NE9       30.30R WCI  25
HAYWARD        CLOUDY    35  29  78 NE8       30.23S WCI  29
SIREN          CLOUDY    34  30  86 CALM      30.22F
CUMBERLAND     CLOUDY    34  30  86 E8        30.20R WCI  27
RICE LAKE      CLOUDY    35  31  83 E12G20    30.20F WCI  27
CHETEK         CLOUDY    35  31  85 E9        30.19S WCI  27
LADYSMITH      CLOUDY    35  31  85 E10       30.21F WCI  27
EAU CLAIRE     NOT AVBL
MENOMONIE      CLOUDY    36  32  84 NE12G21   30.17F WCI  28
NEW RICHMOND   CLOUDY    35  30  81 NE8G18    30.18S WCI  29
OSCEOLA        CLOUDY    36  31  80 NE10      30.22R WCI  29
$$

WIZ003>005-009-010-017-018-251400-
NORTH CENTRAL WISCONSIN

CITY           SKY/WX    TMP DP  RH WIND       PRES   REMARKS
MANITOWISH WTR LGT SNOW  31  31 100 E5        30.24S WCI  26
ARBOR VITAE    CLOUDY    34  32  92 E6        30.23S WCI  29
WOODRUFF       CLOUDY    34  32  92 E6        30.23S WCI  29
RHINELANDER    CLOUDY    34  30  85 E9        30.22F WCI  27
EAGLE RIVER    CLOUDY    32  31  98 E8        30.24S WCI  25
LAND O LAKES   CLOUDY    32  32  99 E5        30.27S WCI  27
PHILLIPS       CLOUDY    32  31  95 E9        30.21S WCI  24
TOMAHAWK       CLOUDY    32  28  86 E8        30.23S WCI  25
MEDFORD        CLOUDY    32  29  89 NE15G23   30.17F WCI  22
MERRILL        CLOUDY    33  30  87 E9G16     30.21F WCI  26
$$

WIZ029-030-035-036-043>047-251400-
CENTRAL WISCONSIN

CITY           SKY/WX    TMP DP  RH WIND       PRES   REMARKS
WAUSAU         CLOUDY    34  30  85 E9G18     30.18F WCI  27
MOSINEE        CLOUDY    34  32  93 E15G23    30.18F WCI  24
MARSHFIELD     CLOUDY    34  30  85 E20G29    30.16S WCI  23
STEVENS POINT  CLOUDY    33  31  94 NE15      30.18S WCI  22
WAUPACA        CLOUDY    37  33  87 NE9G16    30.19F WCI  30
WAUTOMA        CLOUDY    35  33  92 NE14      30.17R WCI  26
WISC RAPIDS    CLOUDY    35  32  88 NE15G23   30.18R WCI  25
CAMP DOUGLAS   NOT AVBL
$$

WIZ011>013-019>022-031-037>040-048>050-251400-
NORTHEAST WISCONSIN

CITY           SKY/WX    TMP DP  RH WIND       PRES   REMARKS
ANTIGO         CLOUDY    32  30  93 E21       30.20F WCI  20
SHAWANO        CLOUDY    37  33  86 NE12G18   30.23R WCI  29
OCONTO         CLOUDY    34  32  91 NE8       30.25S WCI  27
STURGEON BAY   CLOUDY    35  32  88 NE12      30.25R WCI  27
GREEN BAY      CLOUDY    35  34  96 NE21G30   30.22R WCI  24
MANITOWOC      NOT AVBL
APPLETON       CLOUDY    34  34 100 NE17G25   30.17R WCI  23
CLINTONVILLE   CLOUDY    34  32  93 NE10G17   30.22R WCI  26
OSHKOSH        CLOUDY    35  33  92 NE13      30.17R FOG     WCI  26
$$

WIZ032>034-041-042-053>061-251400-
SOUTHWEST WISCONSIN

CITY           SKY/WX    TMP DP  RH WIND       PRES   REMARKS
LA CROSSE      CLOUDY    38  33  82 NE9       30.13R WCI  31
SPARTA         CLOUDY    36  33  90 NE10G20   30.15R WCI  28
VIROQUA        CLOUDY    34  34  99 E17G24    30.08S WCI  24
BOSCOBEL       CLOUDY    38  34  85 NE9G21    30.10R WCI  31
PRAIRIE DU CHI CLOUDY    36  35  96 NE9       30.07R WCI  29
PLATTEVILLE    CLOUDY    37  37 100 NE17G25   30.04R WCI  27
$$

WIZ056-057-062-063-064-067-068-251400-
SOUTH CENTRAL WISCONSIN

CITY           SKY/WX    TMP DP  RH WIND       PRES   REMARKS
REEDSBURG      CLOUDY    34  34 100 NE13G18   30.12S FOG     WCI  25
BARABOO/DELLS  CLOUDY    34  33  96 NE15G23   30.12S FOG     WCI  24
LONE ROCK      NOT AVBL
MINERAL POINT  CLOUDY    36  36 100 NE17G24   30.05R FOG     WCI  25
MADISON        CLOUDY    36  34  92 NE14      30.11R WCI  27
MIDDLETON      CLOUDY    37  36  95 NE16      30.10S WCI  27
WATERTOWN      CLOUDY    36  36 100 NE14      30.11R WCI  27
MONROE         CLOUDY    36  36 100 NE21G26   30.05R FOG     WCI  24
JANESVILLE     CLOUDY    39  39 100 NE13G18   30.07S WCI  32
$$

WIZ051-052-058>065-066-070>072-251400-
SOUTHEAST WISCONSIN

CITY           SKY/WX    TMP DP  RH WIND       PRES   REMARKS
MILWAUKEE      CLOUDY    38  36  92 NE16G22   30.14R WCI  29
WAUKESHA       CLOUDY    36  34  93 NE13G23   30.13R FOG     WCI  27
MILWAUKEE/TIMM CLOUDY    36  34  93 NE13G23   30.14R WCI  27
RACINE         CLOUDY    38  36  92 NE13      30.14R WCI  30
KENOSHA        LGT RAIN  39  37  92 NE16      30.10R WCI  30
FOND DU LAC    CLOUDY    37  33  85 NE15      30.16S WCI  28
SHEBOYGAN      CLOUDY    36  34  92 NE21      30.17S FOG     WCI  25
WEST BEND      CLOUDY    36  36 100 NE15G21   30.14S WCI  26
JUNEAU         CLOUDY    35  34  96 NE9       30.14R WCI  28
$$

LSZ147-162-251400-
LAKE SUPERIOR

STATION/POSITION TIME  TEMP    WIND        PRES    WAVE
                       AIR SEA DIR/SP/G            HT/PER
                 (UTC) (F)     (DEG/KT/KT) (MB)    (FT/S)
DEVILS ISLAND    1200   34      70/ 18/ 21 1027.3R
PORT WING        1240   34      60/  7/  9 1026.1R
SAXON HARBOR     1240   33      60/  1/  2 1025.7R
$$

LMZ867-665-643>646-251400-
LAKE MICHIGAN

STATION/POSITION TIME  TEMP    WIND        PRES    WAVE
                       AIR SEA DIR/SP/G            HT/PER
                 (UTC) (F)     (DEG/KT/KT) (MB)    (FT/S)
CHAMBERS ISLAND  1240   33      20/ 12/ 14 1024.4S
NORTHPORT PIER   1240   35      50/ 12/ 16 1025.4R
SISTER BAY       1150   35      30/  6/ 12   N/A
KEWAUNEE LAKESHO 1230   36      50/ 13/ 18 1022.9R
SHEBOYGAN LAKESH 1200   36      30/ 21/ 23 1022.1R
PORT WASHINGTON  1240   37      30/ 15/ 22 1022.4R
MILWAUKEE LAKESH 1230   37      30/ 17/ 18   N/A
KENOSHA   LAKESH 1200   38      20/ 17/ 20 1019.0
$$

TC  - TEMPERATURE IN CELSIUS
VSB - VISIBILITY IN STATUTE MILES
WCI - WIND CHILL INDEX
HX  - HEAT INDEX





USA.gov is the U.S. government's official web portal to all federal, state and local government web resources and services.